Location: Kalamazoo
(42.2920°N, 85.5870°W)
Time: 11:13:49
(UTC-05:00)

Daily predictions for brighter satellites

Satellite Brightness Start Highest point End
(mag) Time Altitude Azimuth Time Altitude Azimuth Time Altitude Azimuth
Cosmos 2360 Rocket 4.2 18:06:49 10° WSW 18:11:16 24° NW 18:15:44 10° N
Abrixas 2.4 18:13:25 10° SW 18:16:20 75° SSE 18:19:16 10° ENE
Cosmos 1980 3.7 18:10:49 10° SSW 18:16:29 75° ESE 18:22:10 10° NNE
CORIOLIS 4.2 18:11:09 10° SSE 18:16:30 83° ENE 18:21:54 10° NNW
Cosmos 1634 Rocket 4.0 18:10:31 10° N 18:16:44 76° E 18:22:53 10° SSE
IDEFIX/ARIANE 42P 3.0 18:16:12 10° S 18:21:23 68° WSW 18:26:37 10° NNW
Meteor 1-11 4.5 18:16:37 10° SSE 18:22:04 50° E 18:27:37 10° NNE
Lacrosse 5 rocket 1.1 18:20:10 10° NW 18:23:57 82° NE 18:27:56 10° SE
Cosmos 44 Rocket 4.0 18:19:48 10° SW 18:24:50 56° NW 18:29:48 10° NNE
Aureole 2 Rocket 2.8 18:23:29 10° S 18:27:09 55° ESE 18:31:08 10° NNE
MSX 3.9 18:24:35 10° SSE 18:30:18 86° WSW 18:36:05 10° NNW
BREEZE-M DEB (TANK) 2.7 18:28:48 10° SW 18:31:12 35° SE 18:33:02 14° ENE
Cosmos 372 Rocket 3.9 18:26:36 10° NNW 18:31:43 79° ENE 18:36:49 10° SSE
USA 116 4.2 18:30:35 10° N 18:33:37 46° WNW 18:36:36 10° SSW
Cosmos 1626 3.3 18:31:23 10° SE 18:34:25 24° E 18:37:28 10° NE
OTV 4 3.5 18:33:47 10° SW 18:35:01 12° SSW 18:36:13 10° S
Cosmos 2219 Rocket 3.0 18:29:44 10° SW 18:35:13 52° WNW 18:40:44 10° NNE
Timation 1 Rocket 4.4 18:29:33 10° NNW 18:35:31 60° ENE 18:41:26 10° SE
Cosmos 1707 Rocket 4.2 18:32:25 10° NNE 18:36:19 31° ENE 18:40:11 10° SE
Cosmos 540 Rocket 3.6 18:31:58 10° SSW 18:37:08 82° WNW 18:42:20 10° NNE
YAOGAN 1 3.3 18:32:56 10° S 18:37:12 58° W 18:41:29 10° NNW
Cosmos 1328 4.2 18:33:26 10° SSW 18:37:20 67° W 18:41:18 10° N
COSMO-SKYMED 1 2.7 18:33:27 10° NNE 18:37:44 55° E 18:41:59 10° S
Cosmos 2333 Rocket 2.7 18:32:23 10° SW 18:37:58 64° WNW 18:43:37 10° NNE
Cosmos 304 Rocket 4.0 18:34:24 10° S 18:39:02 51° ESE 18:43:42 10° NNE
BREEZE M DEB (TANK) 1.3 18:36:32 10° WNW 18:39:25 55° NNE 18:40:57 16° ESE
USA 215 3.5 18:38:25 10° ESE 18:44:39 49° NNE 18:50:54 10° NW
Cosmos 2151 3.2 18:41:24 10° SSW 18:45:35 74° W 18:49:47 10° N
CZ-4 R/B 3.7 18:43:44 10° SSW 18:47:05 28° W 18:50:29 10° NW
Cosmos 2278 Rocket 2.8 18:41:52 10° NNW 18:47:29 62° WSW 18:53:04 10° S
Cosmos 1666 Rocket 4.2 18:43:36 10° SSE 18:47:29 33° E 18:51:27 10° NNE
Cosmos 1726 3.1 18:45:03 10° NNW 18:48:43 51° W 18:52:23 10° S
Cosmos 1455 2.9 18:47:17 10° NNE 18:50:42 31° ENE 18:54:07 10° SE
Resurs 01 Rocket 2.9 18:49:19 14° ESE 18:51:37 20° ENE 18:54:50 10° NNE
Cosmos 1703 3.3 18:50:06 10° S 18:53:55 56° E 18:57:45 10° NNE
SJ-6B 3.5 18:50:37 10° SE 18:54:21 36° ENE 18:58:09 10° N
Lacrosse 5 3.9 18:53:26 10° NW 18:56:21 15° N 18:59:05 11° NNE
Cosmos 1900 4.2 18:56:45 10° NNW 19:01:44 78° ENE 19:06:44 10° SE
Cosmos 2279 Rocket 4.1 18:57:59 10° N 19:04:13 79° W 19:10:26 10° S
Cosmos 2237 Rocket 3.2 19:06:40 10° SW 19:12:01 44° WNW 19:17:26 10° NNE
Cosmos 2369 Rocket 3.5 19:11:32 10° N 19:15:09 20° NE 19:15:09 20° NE
Lacrosse 4 Rocket 1.7 19:14:14 10° NNW 19:18:04 39° NE 19:18:28 38° ENE
SL-16 R/B 2.2 19:13:54 10° SSW 19:19:33 86° WNW 19:24:59 11° NNE
CENTAUR R/B 4.4 19:15:21 10° W 19:20:26 23° NNW 19:26:00 10° NNE
Cosmos 1340 Rocket 3.9 19:17:35 10° SSW 19:21:21 45° WNW 19:25:09 10° N
Cosmos 2242 Rocket 3.6 19:18:21 10° N 19:22:41 52° E 19:27:01 10° SSE
Nadezhda 4 Rocket 3.9 19:18:06 10° S 19:24:19 77° E 19:30:40 10° N
ALOS 2.5 19:20:18 10° SE 19:24:45 46° ENE 19:29:13 10° N
Cosmos 1805 Rocket 4.1 19:21:23 10° SSW 19:25:47 62° W 19:30:13 10° N
USA 229 DEB 3.8 19:19:18 10° SSW 19:25:57 56° ESE 19:29:43 27° NE
USA 229 3.8 19:19:25 10° SSW 19:26:03 55° ESE 19:29:46 27° NE
Spot 2 Rocket 3.7 19:22:03 10° SE 19:26:51 46° ENE 19:31:39 10° N
Cosmos 1184 Rocket 2.6 19:23:40 10° S 19:27:00 81° E 19:27:44 52° NNE
Cosmos 2026 Rocket 4.5 19:22:58 10° SSE 19:28:25 33° E 19:29:03 33° ENE
Cosmos 2297 4.3 19:25:46 10° NNW 19:31:22 58° WSW 19:36:58 10° S
Meteor 1-28 Rocket 4.4 19:30:59 10° N 19:34:31 41° WNW 19:38:01 10° SW
Cosmos 292 Rocket 4.1 19:31:03 10° S 19:35:12 42° ESE 19:35:12 42° ESE
Cosmos 1869 3.2 19:32:07 10° N 19:36:10 69° E 19:40:11 10° SSE
Iridium 4 Rocket 2.9 19:32:05 10° S 19:36:32 65° E 19:38:16 34° NNE
Cosmos 1461 3.8 19:35:17 10° SW 19:39:16 43° NW 19:41:08 26° N
Sich 1 3.4 19:36:31 10° SSW 19:40:55 65° W 19:45:20 10° N
Cosmos 1538 Rocket 4.4 19:37:01 10° SSW 19:42:16 64° WNW 19:46:59 13° NNE
Cosmos 1092 Rocket 3.9 19:39:23 10° S 19:45:43 81° E 19:52:05 10° N
Cosmos 1633 Rocket 3.6 19:45:33 10° SSW 19:49:53 59° W 19:53:52 12° N
FENGYUN 3A 3.5 19:44:37 10° SSE 19:49:58 80° ENE 19:55:22 10° N
Cosmos 923 Rocket 3.8 19:44:51 10° S 19:50:01 69° ESE 19:50:55 57° NE
BREEZE-M DEB (TANK) 4.2 19:53:37 10° WNW 19:54:14 15° WNW 19:54:14 15° WNW
Cosmos 1680 Rocket 3.6 19:51:45 10° S 19:56:19 57° SE 19:56:19 57° SE
SL-19 R/B 4.4 19:52:04 10° SSE 19:57:56 77° WSW 20:03:34 10° NNW
Aureole 1 Rocket 4.1 19:55:19 10° SSW 20:00:45 75° WNW 20:07:42 11° NNE
Lacrosse 5 rocket 4.4 20:01:19 10° W 20:02:42 12° WSW 20:04:05 10° SW
ATLAS 5 CENTAUR R/B 3.9 20:02:32 10° NNW 20:05:22 21° N 20:05:22 21° N
Cosmos 2195 Rocket 4.3 20:03:48 10° S 20:09:54 82° E 20:13:16 29° NNE
BREEZE-M DEB (TANK) 4.4 20:00:48 10° WNW 20:15:32 50° N 20:16:12 48° NNE
NOSS 3-1 (C) 4.4 20:12:39 10° S 20:15:42 31° S 20:15:42 31° S
Cosmos 1603 3.8 20:18:40 10° SSW 20:24:15 70° WNW 20:24:34 68° NW
Cosmos 1943 Rocket 4.3 20:20:03 10° N 20:21:01 14° N 20:21:01 14° N
USA 215 3.7 20:24:57 36° SSE 20:27:34 58° SW 20:34:01 10° NW
Resurs 01 Rocket 2.8 20:26:51 36° SW 20:27:48 41° W 20:32:01 10° NNW
ATLAS 3B R/B 4.5 20:28:26 10° NNW 20:31:30 17° N 20:31:30 17° N
CZ-4C R/B 4.1 20:32:17 10° NNW 20:35:48 25° N 20:35:48 25° N
Cosmos 1655 Rocket 4.3 20:32:27 10° S 20:37:30 58° SSW 20:37:30 58° SSW
Lacrosse 5 4.2 20:37:04 10° NNW 20:38:18 15° NNW 20:38:18 15° NNW
Lacrosse 4 Rocket 4.3 20:53:41 10° WNW 20:54:54 15° W 20:54:54 15° W
Cosmos 2369 Rocket 3.9 20:54:36 10° NNW 20:56:59 26° NNW 20:56:59 26° NNW
